Wind_Speed
9 7 10 3 3 3 7 10 7 11 5 4 3 5 9 6 5 2 6 10 21 23 6 22 26 26 31 33 32 31 29 30 33 35 36 37 36 37 36 32 32 32 29 27 26 26 27 26 25
7 9 7 3 2 2 8 14 12 4 3 9 9 4 7 4 6 4 4 8 19 7 27 27 27 28 32 33 32 31 30 33 34 35 36 36 36 37 34 32 32 30 28 26 25 27 26 23 21
9 6 2 3 3 8 6 7 7 7 7 5 6 8 6 5 7 5 6 1 12 12 28 30 35 26 29 33 32 30 33 34 36 34 35 35 36 36 33 32 31 30 27 25 26 26 24 21 20
2 4 4 0 11 18 5 3 8 9 8 14 11 7 3 9 4 5 5 10 26 11 16 29 33 31 31 31 30 32 35 35 36 36 34 33 33 35 33 32 30 29 25 26 27 23 21 19 19
5 2 2 5 11 11 4 3 4 23 13 20 4 5 5 6 7 4 2 5 9 22 13 13 28 33 33 32 28 30 35 37 36 35 35 33 32 33 31 31 30 28 27 27 26 24 20 17 18
2 3 4 8 10 5 4 5 3 19 22 19 11 9 6 9 6 9 4 4 18 19 21 19 42 39 36 33 31 29 33 37 36 36 35 34 33 30 30 30 28 27 25 25 24 21 20 17 18
6 2 6 11 18 4 4 7 12 16 17 2 2 3 0 10 3 9 9 15 14 21 24 27 36 37 31 32 33 31 33 36 37 36 35 33 32 28 28 28 27 25 23 22 21 19 19 20 19
4 3 8 7 5 0 3 3 10 10 4 10 4 1 3 2 9 17 16 16 19 24 22 21 19 39 34 36 36 35 34 34 34 35 33 31 29 27 27 26 24 23 21 19 18 18 18 19 18
2 2 6 16 4 5 5 4 4 6 9 4 4 3 10 7 16 19 20 24 23 18 29 29 27 31 32 30 30 31 31 32 32 32 31 28 28 27 26 25 21 19 19 17 15 16 20 19 16
5 4 9 6 2 5 6 6 9 4 5 4 4 4 16 13 12 15 12 15 19 21 26 31 39 37 35 34 26 27 29 31 31 32 31 30 27 25 24 21 19 18 16 15 13 12 12 8 10
8 6 9 7 3 4 4 7 6 6 4 1 7 6 9 15 15 14 13 15 17 21 30 33 35 37 39 37 36 29 28 30 31 30 31 25 24 23 23 22 20 17 15 14 11 9 9 9 8
5 8 6 5 3 1 3 6 6 9 1 4 8 9 8 11 9 12 13 16 21 25 30 36 36 36 34 35 36 34 36 30 23 27 26 23 21 21 20 19 17 15 14 14 8 9 8 7 7
4 5 7 7 9 4 15 10 9 9 6 7 5 6 11 10 12 12 13 16 20 23 24 34 37 41 40 41 39 35 33 26 26 22 20 20 17 21 20 16 14 14 13 12 10 8 7 6 9
6 7 6 9 10 4 7 5 5 4 8 7 9 9 8 11 13 13 14 16 20 23 23 30 35 39 42 43 39 36 29 24 26 18 18 15 15 17 15 17 14 15 12 11 11 7 8 10 7
14 7 7 11 8 4 9 6 4 4 9 8 8 7 8 9 15 15 13 15 23 23 27 28 36 40 42 38 35 36 35 28 26 19 17 18 17 13 15 18 15 13 14 14 13 13 10 13 8
7 7 5 10 9 1 8 3 6 7 9 6 11 10 11 13 14 18 18 19 23 28 30 28 32 35 34 39 35 33 35 36 32 24 14 15 16 17 16 15 16 14 13 16 15 16 13 10 9
5 8 8 8 5 5 4 2 5 12 12 9 11 12 10 12 14 18 21 23 26 29 31 33 34 36 37 35 37 37 34 29 30 33 17 19 18 17 15 16 16 18 16 17 14 13 12 14 12
8 4 4 1 5 3 4 4 8 9 18 17 15 14 13 14 17 24 23 22 26 29 29 34 38 36 38 37 37 36 40 35 37 29 26 22 23 18 19 20 17 19 20 16 14 15 16 17 15
13 12 6 4 6 7 12 8 12 10 5 18 14 15 15 16 21 25 28 29 28 31 31 35 35 37 33 32 30 32 29 30 30 24 20 25 25 25 22 22 18 25 23 19 20 18 18 13 12
16 10 7 6 1 4 11 11 10 8 6 11 15 16 17 15 18 24 26 28 29 32 31 34 36 37 33 32 31 28 29 26 25 23 25 23 26 27 24 26 22 26 23 22 23 24 19 18 14
15 7 5 2 5 10 4 3 5 9 10 8 11 13 16 22 19 19 25 29 33 33 34 36 36 33 34 33 31 30 26 26 29 28 28 28 29 28 25 28 25 26 24 26 24 27 26 18 14
9 6 9 5 1 4 5 3 10 14 14 14 12 14 13 20 20 19 25 29 34 35 36 35 35 34 36 36 32 31 29 24 28 32 33 33 30 29 29 34 32 26 25 26 22 26 22 14 12
11 7 1 2 3 2 6 0 4 15 12 15 14 18 14 21 22 22 25 35 36 38 39 37 38 38 38 39 37 34 33 32 35 34 35 35 33 32 31 32 29 25 28 27 22 23 21 17 14
9 4 3 3 1 4 6 2 6 12 19 17 19 19 18 18 22 23 34 36 37 38 37 39 39 40 43 43 45 36 34 36 36 34 31 37 37 36 36 29 29 31 29 28 27 27 28 29 26
6 2 1 3 2 6 4 3 7 8 9 8 22 20 21 20 22 22 23 27 35 38 42 40 40 40 42 41 42 44 41 40 40 36 36 31 31 33 27 32 32 34 35 30 30 31 31 25 28
10 7 5 4 2 4 3 3 6 8 8 9 17 22 16 16 18 23 25 32 35 41 42 43 42 40 41 43 44 45 41 39 41 36 29 29 27 30 36 34 36 32 34 33 33 29 27 26 29
10 6 8 4 3 2 3 6 8 10 12 8 11 9 10 11 12 17 23 33 37 40 44 45 44 43 40 39 40 42 46 42 38 41 30 33 35 32 31 34 33 33 33 31 25 24 27 31 26
9 3 2 0 4 4 4 4 4 9 10 6 7 13 14 15 15 13 15 31 37 42 45 46 45 46 49 46 43 45 48 48 44 32 37 32 29 30 34 35 32 29 27 23 20 26 29 28 24
4 7 3 4 5 4 3 5 7 10 5 6 9 7 8 9 11 10 9 15 31 39 40 40 37 26 32 27 38 38 46 51 47 41 34 19 25 32 29 30 23 24 24 22 22 28 29 25 17
9 13 10 5 5 4 3 10 5 7 5 4 6 8 8 8 8 7 8 7 7 19 34 28 38 45 50 39 35 40 29 18 17 21 24 20 34 27 23 23 23 24 24 22 24 28 26 21 17
Wind_Direction
284 298 305 291 42 71 268 264 248 328 88 251 224 87 124 109 67 162 268 223 132 114 39 168 154 153 146 140 139 136 132 128 127 124 123 121 119 117 116 115 112 108 105 102 102 101 103 101 98
284 297 236 270 138 297 281 252 245 186 172 140 64 29 74 93 64 108 320 321 213 219 155 176 161 162 152 145 143 137 133 129 127 126 126 124 122 120 119 117 113 110 106 105 102 104 109 105 97
289 276 67 167 203 233 237 265 304 359 4 12 97 25 14 48 30 136 14 170 120 158 171 172 158 165 155 146 141 137 134 133 131 129 128 126 125 125 123 120 117 113 109 106 104 106 107 101 89
283 340 323 196 256 262 265 338 15 353 359 28 102 54 1 13 327 303 354 88 126 169 182 167 158 167 157 143 140 139 137 133 132 130 128 127 128 127 126 123 119 116 113 108 105 104 106 100 87
250 302 237 268 274 282 249 291 37 40 31 22 43 157 131 43 352 18 22 98 144 184 162 184 164 166 154 143 138 139 137 135 132 131 130 132 132 130 128 127 124 121 118 111 108 102 98 98 90
328 135 313 282 286 274 339 352 51 58 46 359 10 5 26 67 358 15 39 123 153 169 196 218 171 159 152 144 138 138 138 135 133 132 134 135 134 134 133 130 126 123 119 114 110 103 94 96 96
200 87 254 288 295 19 301 354 57 80 72 327 233 261 319 42 32 72 112 117 138 172 149 180 164 150 146 142 139 148 143 137 135 134 137 137 137 138 134 132 127 124 122 117 111 104 93 100 101
193 144 303 295 301 183 271 31 98 87 102 162 220 71 33 357 86 107 120 152 122 126 135 110 133 126 132 137 142 145 143 138 134 133 135 137 136 137 136 132 130 125 123 118 113 104 93 107 95
258 7 283 281 40 329 85 118 18 115 142 155 138 134 140 180 105 101 92 110 146 132 131 140 116 116 125 125 136 138 139 133 130 130 130 131 134 137 138 134 132 130 125 118 115 110 103 101 85
157 158 245 260 66 23 342 76 126 122 136 93 114 164 158 141 112 106 99 114 134 125 126 136 139 135 132 131 135 131 130 133 131 127 126 128 129 137 137 139 139 135 129 118 120 121 114 87 96
251 213 257 288 119 44 73 66 61 118 39 35 149 174 127 125 115 113 116 116 116 126 137 142 139 141 138 140 144 138 138 133 130 128 133 136 138 142 153 154 150 147 138 132 132 118 105 108 115
247 255 282 276 109 104 33 74 89 67 116 120 138 159 141 109 118 124 124 124 121 132 139 146 144 146 147 145 151 150 141 130 134 134 145 140 138 156 157 158 154 157 150 143 134 133 120 115 94
226 250 287 316 320 127 79 64 109 106 106 123 139 137 124 126 118 117 120 125 117 111 125 141 147 148 150 151 151 140 138 140 137 135 144 150 149 166 163 160 166 167 156 161 162 165 146 125 113
297 294 319 302 283 125 88 93 92 123 152 146 118 121 130 121 126 129 124 122 127 133 136 130 139 142 146 142 138 137 155 144 128 164 154 161 165 169 173 175 169 174 182 174 175 181 163 163 148
312 322 305 276 242 100 114 60 115 152 155 136 128 120 126 130 142 143 140 134 136 129 135 134 138 144 146 152 152 156 166 166 165 179 169 176 182 198 198 206 190 187 179 191 196 181 177 174 169
298 306 274 285 122 224 115 213 141 160 142 159 154 150 156 161 162 152 159 152 151 151 156 144 150 147 156 160 169 175 176 179 195 192 188 196 206 192 200 193 199 195 199 206 185 173 170 183 204
260 249 259 263 196 138 96 199 221 145 134 188 178 162 167 157 148 168 162 157 158 158 156 159 162 169 167 169 173 177 170 175 184 186 217 213 212 211 209 211 202 199 197 182 192 197 201 196 198
259 232 274 297 101 134 103 197 255 156 165 196 186 178 177 169 168 167 168 159 165 160 158 164 167 172 177 176 170 172 180 184 185 215 233 229 214 214 217 212 210 202 201 203 205 205 211 205 198
260 280 278 219 196 166 188 188 215 234 177 199 187 179 174 161 164 162 165 168 166 166 164 171 172 171 172 176 180 181 197 207 209 220 224 211 216 218 220 211 216 206 208 208 207 207 208 191 205
262 270 269 317 201 191 167 209 216 247 254 188 178 183 171 156 154 160 164 166 171 174 176 179 179 181 183 190 194 203 209 219 222 226 228 223 226 221 220 217 212 208 207 205 212 214 202 209 213
271 258 286 252 190 267 220 14 231 253 261 270 179 171 154 163 165 167 166 172 177 181 183 185 188 192 193 194 199 201 211 229 221 226 228 228 226 221 218 216 212 214 216 212 216 210 212 205 217
267 259 247 251 243 224 171 258 217 224 220 222 176 176 166 171 172 173 172 178 181 186 187 190 194 194 194 196 198 207 214 215 216 221 222 222 225 231 220 216 213 214 214 213 221 209 203 190 194
257 249 323 301 315 316 308 295 233 209 207 205 191 185 188 177 177 178 182 182 187 187 190 194 197 196 197 202 207 212 213 217 218 220 223 224 226 223 216 212 211 211 208 210 205 201 200 197 214
255 204 240 294 329 335 267 215 295 183 197 208 199 178 192 182 183 184 187 186 186 190 194 196 199 203 205 207 212 214 215 220 214 213 214 219 219 214 219 206 212 215 211 203 197 197 212 215 213
258 202 247 337 329 229 335 347 229 236 174 178 175 176 193 188 182 185 186 188 192 188 194 199 202 205 205 207 212 217 219 222 214 218 217 214 209 221 226 220 212 213 210 205 209 216 215 216 202
242 184 156 220 214 267 12 249 270 331 191 184 172 183 190 177 191 186 188 190 193 196 195 197 203 207 207 209 214 218 221 220 214 213 213 212 223 235 240 225 220 208 212 215 217 222 224 212 207
239 210 187 175 39 64 250 281 301 276 231 205 202 181 212 203 202 199 190 191 197 198 200 198 198 205 209 210 214 216 218 219 212 214 205 216 220 228 242 228 209 211 210 215 217 225 221 210 211
186 189 237 346 156 225 219 242 234 266 232 210 152 186 217 224 215 203 186 193 199 202 203 203 202 203 208 210 214 218 219 218 220 211 208 219 239 222 231 214 207 209 217 220 239 226 217 205 206
210 219 195 162 150 197 207 249 192 218 244 196 182 159 149 150 161 181 193 201 209 206 206 204 201 185 217 228 225 224 221 220 216 209 207 240 244 226 211 208 214 223 228 237 228 216 208 206 216
198 203 200 146 200 191 180 253 198 184 263 252 229 179 168 150 156 148 152 176 173 196 214 199 190 190 203 215 230 225 213 178 196 197 200 229 224 208 202 215 225 225 226 225 219 216 214 212 212
Height
779 781 782 783 808 807 807 787 762 757 746 747 737 742 754 759 769 791 769 769 773 757 761 786 788 794 789 788 793 797 802 807 810 813 816 819 823 826 829 832 836 838 842 844 846 847 848 851 852
780 779 781 786 810 821 802 763 764 746 742 744 740 744 753 771 757 771 770 768 772 774 768 777 789 794 791 791 795 796 804 809 813 815 818 822 826 829 833 835 839 843 844 847 849 849 851 854 856
778 779 787 796 806 807 799 760 747 737 732 734 756 755 762 774 766 767 770 766 771 780 783 788 782 799 796 793 795 799 806 808 811 819 823 826 828 833 835 839 842 845 849 850 851 853 854 856 857
777 778 782 797 800 776 776 765 751 741 732 745 755 778 779 782 777 772 772 772 762 785 789 786 786 795 800 796 798 803 806 810 814 818 826 832 835 835 838 841 846 846 853 852 853 857 856 858 860
778 783 800 799 790 771 762 754 749 761 763 773 754 777 775 780 776 773 770 771 770 779 781 783 784 795 797 797 807 810 809 811 816 821 827 833 839 840 843 845 846 849 854 854 856 858 860 861 862
785 783 807 803 782 763 753 752 750 770 779 785 779 774 777 783 776 774 768 769 774 780 780 779 771 787 794 800 806 815 817 814 818 824 830 836 842 845 846 848 850 854 856 857 859 861 862 863 864
784 795 801 790 774 764 758 751 758 770 769 793 790 793 792 791 784 774 775 775 779 782 787 786 769 783 794 802 804 817 822 819 820 825 832 839 843 849 850 852 853 856 860 860 861 864 866 866 868
775 787 793 782 773 767 757 756 760 764 784 779 779 778 786 790 787 780 779 781 782 785 789 792 780 785 800 808 813 822 825 822 823 827 835 840 844 850 854 856 857 858 862 863 865 867 869 869 870
761 793 800 777 766 766 750 756 766 769 777 768 768 771 778 783 784 785 781 782 784 787 786 787 788 798 809 814 820 826 827 826 830 834 837 841 845 852 856 857 860 863 864 865 868 870 871 872 874
773 792 782 755 752 757 751 751 762 770 773 778 784 785 782 782 783 786 787 788 790 791 791 795 789 798 806 809 819 828 827 830 834 835 838 843 847 854 857 859 862 864 866 867 869 871 873 874 874
763 780 759 749 744 744 753 756 757 775 781 782 783 786 784 780 782 785 790 789 790 791 793 796 796 801 804 811 818 825 830 835 835 836 841 845 848 852 858 860 862 866 867 868 871 872 874 874 875
763 753 749 745 740 741 750 756 772 775 785 780 783 782 783 782 783 787 790 790 791 792 795 796 797 801 807 814 821 827 830 833 838 838 845 846 848 854 858 861 863 866 868 869 871 873 875 876 875
752 748 745 743 740 740 747 760 772 780 784 783 782 781 782 784 787 789 789 791 794 793 795 795 797 801 808 814 822 826 829 837 839 841 844 848 850 855 858 860 864 866 868 869 870 873 874 875 877
747 746 745 743 743 739 752 765 762 772 775 778 781 783 786 786 789 792 792 791 792 794 795 795 799 805 809 815 822 824 833 836 833 847 846 848 852 855 857 860 863 865 868 869 870 873 874 875 876
748 757 748 744 741 751 749 768 776 768 773 776 779 782 784 786 788 791 793 792 792 794 797 800 803 806 809 818 823 829 833 834 840 844 847 849 852 855 858 859 862 864 866 868 870 873 874 875 875
762 758 771 745 743 750 749 776 771 767 769 782 775 775 782 784 787 791 796 795 796 796 799 803 806 809 815 819 825 830 832 834 840 843 845 848 852 855 857 858 860 862 865 867 869 871 873 874 875
766 781 769 755 735 751 756 772 760 765 766 776 777 775 781 784 788 792 792 796 798 798 800 802 806 811 815 821 825 829 831 837 840 840 843 848 850 852 853 856 857 860 862 865 868 869 871 872 874
776 768 756 754 743 750 766 771 758 757 764 765 769 770 775 781 787 790 791 794 796 798 800 802 809 813 818 823 827 829 832 836 838 842 842 844 846 848 851 854 855 857 860 862 865 867 870 870 871
753 756 755 745 734 748 757 768 757 747 762 764 761 763 768 774 780 787 792 798 799 801 802 807 809 813 820 822 825 827 829 832 835 837 838 839 842 845 847 851 852 853 855 858 861 864 866 867 868
747 754 754 739 731 738 758 765 757 754 756 754 753 758 763 771 777 783 790 793 795 798 801 804 808 812 815 818 822 825 827 827 830 832 833 836 838 840 843 846 849 850 852 854 857 859 861 863 865
743 749 748 750 739 734 744 774 768 754 753 751 748 749 755 762 770 777 784 788 793 795 796 800 802 806 809 813 818 821 822 825 825 827 829 830 834 837 839 841 844 846 847 849 852 854 856 857 861
753 730 734 739 748 771 739 780 766 755 747 747 744 747 752 758 762 767 774 781 782 786 790 793 797 800 803 807 809 811 813 815 817 821 825 827 830 832 833 835 837 838 842 844 848 848 851 854 859
741 728 733 736 751 750 750 767 748 744 749 742 741 740 743 747 752 758 763 769 775 780 782 786 790 792 795 798 801 803 804 807 810 814 818 821 823 826 827 831 833 834 836 836 838 845 847 849 855
721 729 729 735 749 783 757 758 759 747 736 731 733 733 736 737 742 747 751 759 764 771 776 778 781 784 788 792 794 797 799 801 804 806 808 810 814 818 819 823 827 830 830 832 834 836 841 840 843
727 741 772 781 788 792 750 755 750 728 718 712 717 720 724 725 732 738 744 750 756 757 762 768 773 776 780 784 786 787 788 790 793 799 802 804 807 812 815 816 818 821 824 827 829 832 834 838 840
730 738 776 782 799 773 751 761 743 722 711 704 704 705 711 721 723 726 731 738 743 747 751 758 763 767 773 776 777 779 781 784 785 790 794 800 804 803 808 811 811 815 819 822 824 828 832 835 837
727 741 727 754 759 775 769 746 726 712 714 708 709 710 713 714 717 719 721 728 732 735 741 744 750 758 764 765 770 771 772 776 779 782 786 787 789 794 801 805 807 810 813 817 820 824 827 830 833
713 713 745 750 780 783 765 759 747 724 714 707 708 711 708 706 709 711 714 718 720 723 727 735 740 742 745 750 756 760 762 766 770 775 780 782 786 787 788 801 801 805 811 814 817 819 822 826 829
718 725 727 732 753 776 780 760 721 721 714 706 703 700 700 701 703 706 709 712 714 715 720 728 735 746 749 755 753 755 752 750 759 765 768 780 786 788 787 795 799 802 807 809 813 816 819 823 826
699 712 719 756 753 747 764 753 705 706 703 697 699 697 698 697 698 699 703 705 708 709 715 723 728 728 728 731 740 745 749 752 749 761 756 764 777 785 782 790 794 798 802 804 808 812 816 819 822